Regional Weather Roundup
Issued by NWS

Home | Current Version | Previous Version | Text Only | Print | Product List | Glossary On
Versions: 1 2 3 4 5 6 7 8 9 10 11 12 13 14 15 16 17 18 19 20 21 22 23 24 25 26 27 28 29 30 31 32 33 34 35 36 37 38 39 40 41 42 43 44 45 46 47 48 49 50
000
ASUS45 KBOU 212207
RWRCO

WEATHER ROUNDUP FOR COLORADO
NATIONAL WEATHER SERVICE DENVER/BOULDER CO
300 PM MST FRI NOV 21 2014

NOTE: "FAIR" INDICATES FEW OR NO CLOUDS BELOW 12000 FEET WITH NO
SIGNIFICANT WEATHER AND/OR OBSTRUCTIONS TO VISIBILITY.

COZ001>005-013-030-031-212300-
...NORTHWEST COLORADO...

CITY           SKY/WX    TMP DP  RH WIND       PRES   REMARKS
CRAIG          SUNNY     49  19  30 CALM      30.01F
HAYDEN         SUNNY     45  18  33 CALM      30.02S
MEEKER         SUNNY     49  19  30 CALM      30.00F
MOUNT WERNER   NOT AVBL
STEAMBOAT SPGS SUNNY     42  17  37 CALM      30.02F
WALDEN         MOSUNNY   36  18  48 SW14G21   30.01S
$$

COZ006>008-011-212300-
...WEST CENTRAL VALLEYS...

CITY           SKY/WX    TMP DP  RH WIND       PRES   REMARKS
GRAND JUNCTION SUNNY     51  17  26 W3        30.00F
MONTROSE       SUNNY     51  18  27 NW6       30.02F
EAGLE          SUNNY     46  18  31 CALM      30.03F
RIFLE          SUNNY     50  18  28 W5        30.01F
DELTA          SUNNY     54  18  24 W5        30.00F
NUCLA          SUNNY     50  19  29 CALM      30.05F
$$

COZ017>023-064>068-212300-
...SOUTHWEST COLORADO...

CITY           SKY/WX    TMP DP  RH WIND       PRES   REMARKS
DURANGO        SUNNY     49  18  29 VRB3      30.02S
CORTEZ         SUNNY     53  20  27 SW9       30.01S
PAGOSA SPRINGS SUNNY     46  13  26 S5        30.04S
TELLURIDE      MOSUNNY   39  17  40 W9        30.08S
WOLF CREEK PAS MOSUNNY   28  14  54 SW8       30.12R WCI  20
$$

COZ009-010-012-014-032>034-037-058>063-212300-
...CENTRAL COLORADO...

CITY           SKY/WX    TMP DP  RH WIND       PRES   REMARKS
ASPEN          SUNNY     41  17  38 NW5       30.03S
BUENA VISTA    MOSUNNY   46  12  25 NW5       29.99S
COPPER MTN     MOSUNNY   28   7  40 W17       30.09S WCI  16
BERTHOUD PASS  FAIR      18  14  86 NW22G30   30.06F WCI   0
COTTONWOOD PAS MOSUNNY   41   9  26 W10       30.04S
GUNNISON       SUNNY     34  18  51 CALM      30.09F
KREMMLING      MOSUNNY   43  14  31 CALM      30.03F
LEADVILLE      SUNNY     33   8  35 NW14      30.04R WCI  23
SALIDA         MOSUNNY   49  12  22 S14G20    30.07R
SUNLIGHT       SUNNY     32  19  59 SW3       30.11S
WILKERSON PASS SUNNY     32   5  32 N3        30.09R
$$

COZ069>075-212300-
...SAN LUIS VALLEY/SANGRE DE CRISTO MOUNTAINS...

CITY           SKY/WX    TMP DP  RH WIND       PRES   REMARKS
ALAMOSA        MOSUNNY   44  14  29 S7        30.03S
LA VETA PASS   PTSUNNY   34  14  44 S14G22    30.06S WCI  24
SAGUACHE       SUNNY     46  10  23 NW5       30.03R
$$

COZ035-036-038>040-212300-
...NORTHERN COLORADO FRONT RANGE...

CITY           SKY/WX    TMP DP  RH WIND       PRES   REMARKS
DENVER INTL AP MOSUNNY   53  19  26 N5        29.92R
DMNS CITY PARK   N/A     56  17  22 E3        29.91R
AURORA         PTSUNNY   53  21  28 E7        29.93R
FRONT RANGE AP NOT AVBL
ERIE MUNI ARPT MOSUNNY   55  19  23 CALM      29.90S
BOULDER MUN AP MOSUNNY   52  21  30 NW3       29.90S
CENTENNIAL     PTSUNNY   54  18  24 VRB5      29.92S
BROOMFIELD     PTSUNNY   57  14  18 W13       29.92R
FORT COLLINS   SUNNY     54  27  35 S7        29.92R
LONGMONT       SUNNY     54  26  34 CALM      29.92R
$$

COZ041-046-047-076>085-087-088-212300-
...PIKES PEAK/PALMER DIVIDE AND SOUTHERN FOOTHILLS...

CITY           SKY/WX    TMP DP  RH WIND       PRES   REMARKS
COLO. SPRINGS  MOSUNNY   53  15  22 S3        29.94R
A. F. ACADEMY  SUNNY     53  14  21 VRB5      29.93R
ELLICOTT       LGT RAIN  53  14  21 CALM      29.93R
FALCON         NOT AVBL
FORT CARSON    SUNNY     54  19  24 SE7       29.92R
LIMON          SUNNY     53  19  26 N7        29.93R
MONUMENT HILL  MOSUNNY   46  14  27 N6        29.94S
TRINIDAD       PTSUNNY   51  28  41 S5        29.94R
$$

COZ042>045-048>051-090-091-212300-
...NORTHEAST COLORADO...

CITY           SKY/WX    TMP DP  RH WIND       PRES   REMARKS
GREELEY ARPT   SUNNY     57  21  24 S5        29.90S
AKRON          SUNNY     56  18  22 N12       29.90S
BURLINGTON     SUNNY     54  26  34 S10       29.90R
WRAY           MOSUNNY   60  23  23 SE5       29.89R
STERLING       SUNNY     61  25  25 CALM      29.88S
HOLYOKE        MOSUNNY   59  21  23 CALM      29.89S
FORT MORGAN    SUNNY     57  18  21 S3        29.91S
$$

COZ086-089-092>099-212300-
...SOUTHEAST COLORADO...

CITY           SKY/WX    TMP DP  RH WIND       PRES   REMARKS
PUEBLO         SUNNY     56  25  30 E7        29.90R
LA JUNTA       SUNNY     53  32  44 CALM      29.91R
LAMAR          SUNNY     55  28  35 W6        29.90S
SPRINGFIELD      N/A     57  24  28 SE7       29.92R
$$



USA.gov is the U.S. government's official web portal to all federal, state and local government web resources and services.